Regional Weather Roundup
Issued by NWS Sioux Falls, SD

Home | Current Version | Previous Version | Text Only | Print | Product List | Glossary Off
Versions: 1 2 3 4 5 6 7 8 9 10 11 12 13 14 15 16 17 18 19 20 21 22 23 24 25 26 27 28 29 30 31 32 33 34 35 36 37 38 39 40 41 42 43 44 45 46 47 48 49 50

000
ASUS43 KFSD 032002
RWRFSD

WEATHER ROUNDUP FOR SE SOUTH DAKOTA/SW MINNESOTA/NW IOWA
NATIONAL WEATHER SERVICE SIOUX FALLS SD
300 PM CDT THU SEP 03 2015

NOTE: "FAIR" INDICATES FEW OR NO CLOUDS BELOW 12,000 FEET WITH NO
SIGNIFICANT WEATHER AND OR OBSTRUCTIONS TO VISIBILITY.


SDZ038>040-050-052>070-032100-
SOUTHEAST SOUTH DAKOTA

CITY           SKY/WX    TMP DP  RH WIND       PRES   REMARKS
BROOKINGS      SUNNY     88  72  58 SE15G22   29.83F
CHAMBERLAIN    SUNNY     91  70  50 SE9       29.75F HX  95
HURON          SUNNY     91  70  49 SE13      29.75F HX  96
MADISON        FAIR      84  73  70 SE14G20   29.82F
MITCHELL       SUNNY     91  72  53 SE14G21   29.76F HX  98
SIOUX FALLS    MOSUNNY   86  71  60 SE15G22   29.81F
WINNER         FAIR      99  46  16 SE13G22   29.75F HX  95
YANKTON        SUNNY     88  70  55 SE13      29.77F
$$

MNZ071-072-080-081-089-090-097-098-032100-
SOUTHWEST MINNESOTA

CITY           SKY/WX    TMP DP  RH WIND       PRES   REMARKS
FAIRMONT       SUNNY     88  70  55 SE12      29.85F
JACKSON        SUNNY     88  73  62 SE13      29.86F HX  96
LUVERNE        SUNNY     88  70  55 SE8       29.83F
MARSHALL       SUNNY     90  72  55 SE14      29.83F HX  96
MONTEVIDEO     SUNNY     91  73  55 S9        29.83F HX 100
PIPESTONE      SUNNY     88  72  58 S12       29.84F
REDWOOD FALLS  SUNNY     88  74  63 SE12      29.83F HX  96
TRACY          SUNNY     89  75  63 SE12      29.84F HX  99
WINDOM         SUNNY     90  72  55 SE9       29.85F HX  96
WORTHINGTON    SUNNY     86  72  62 SE14      29.85S
$$

IAZ001>003-012>014-020>022-031-032-NEZ013-014-SDZ071-032100-
NORTHWEST IOWA

CITY           SKY/WX    TMP DP  RH WIND       PRES   REMARKS
DENISON        SUNNY     86  73  66 S8G18     29.83S
ESTHERVILLE    SUNNY     85  73  67 S14       29.85F
SIOUX CITY     SUNNY     87  70  56 SE13      29.80F
SPENCER        MOSUNNY   87  72  60 SE14      29.85F
STORM LAKE     SUNNY     84  73  70 S13G18    29.86S
$$

ABBREVIATIONS USED IN REMARKS
   TC - TEMPERATURE IN CELSIUS
  WCI - WIND CHILL INDEX
   HX - HEAT INDEX
  VSB - VISIBILITY




USA.gov is the U.S. government's official web portal to all federal, state and local government web resources and services.